www.pogodaiklimat.ru

Погода и климат >> Архив погоды >> Россия >> Хабаровский край >> Советская Гавань


АРХИВ ПОГОДЫ в Советской Гавани

Время (UTC), дата Ветер
(напр.,м/с)
 
Видим.   Явления Облачность Т
(С)
Тd
(С)
f
(%)
Тe
(С)
Тes
(С)
Комфортность P
(гПа)
Po
(гПа)
Тmin
(С)
Tmax
(С)
R
(мм)
R24
(мм)
S
(см)
09 12.07 штиль 0 200 м слаб. морось {туман} туман ?/? +10.6 +9.8 95 +10 +10 1007.3 1004.8 +15.6 0.0
12 12.07 штиль 0 300 м морось {туман} туман ?/? +10.6 +10.0 96 +10 +10 1008.4 1005.9
15 12.07 штиль 0 1100 м морось {туман} 10/10 200 м
[St]
+11.5 +11.0 97 +11 +11 1008.2 1005.6
18 12.07 штиль 0 1600 м морось {туман} 10/10 200 м
[St]
+12.2 +11.7 97 +12 +12 1008.0 1005.5
21 12.07 штиль 0 1000 м морось 10/10 200 м
[St]
+12.6 +12.1 97 +12 +12 1008.4 1005.9 +10.5 2
00 13.07 штиль 0 2000 м слаб. ливневой дождь {морось} 10/10 100 м
[Cb cap]
+13.6 +13.1 97 +13 +13 1008.7 1006.2
03 13.07 штиль 0 2000 м слаб. ливневой дождь 10/10 200 м
[Cb cap]
+14.0 +13.5 97 +14 +14 1008.9 1006.4
06 13.07 штиль 0 4000 м дымка {ливн. осадки} 10/10 200 м
[St]
+13.9 +12.9 94 +13 +13 1008.9 1006.4
09 13.07 СВ 1 4000 м дымка 10/10 200 м
[St]
+13.4 +12.0 91 +14 +14 1008.8 1006.3 +14.3 3
12 13.07 штиль 0 4000 м дымка 10/10 200 м
[St]
+13.0 +11.7 92 +12 +12 1009.9 1007.4
15 13.07 штиль 0 4000 м слаб. морось 10/10 200 м
[St]
+12.8 +12.0 95 +12 +12 1010.4 1007.9
18 13.07 штиль 0 4000 м в посл. час морось 10/10 200 м
[St]
+12.3 +11.7 96 +12 +12 1010.5 1008.0
21 13.07 штиль 0 4000 м дымка 10/10 200 м
[St]
+12.8 +12.1 96 +12 +12 1011.2 1008.7 +12.3 0.3
00 14.07 штиль 0 4000 м дымка 10/10 300 м
[St]
+14.2 +13.0 92 +14 +14 1011.8 1009.3
03 14.07 штиль 0 20 км слаб. ливневой дождь 10/10 300 м
[Cb cap]
+15.9 +13.7 87 +16 +16 1012.2 1009.8
06 14.07 В 2 20 км {ливн. осадки} 10/3 600 м
[Sc Ac trans Ci fib]
+17.6 +13.6 77 +18 +22 1012.3 1009.8
09 14.07 штиль 0 20 км 10/8 600 м
[Sc Ac lent]
+16.2 +13.3 83 +16 +16 1012.8 1010.3 +17.9 0.0
12 14.07 штиль 0 16 км 10/10 300 м
[St]
+15.5 +13.3 87 +15 +15 1013.8 1011.3
15 14.07 штиль 0 12 км 10/10 300 м
[St]
+14.6 +12.8 89 +14 +14 1014.2 1011.7
18 14.07 штиль 0 14 км 10/10 600 м
[Sc]
+13.0 +12.6 97 +12 +12 1014.2 1011.7
21 14.07 штиль 0 10 км 10/8 600 м
[Sc Ac trans Cc]
+14.2 +12.7 91 +14 +14 1014.7 1012.2 +13.4
00 15.07 Ю 2 20 км 10/3 300 м
[Cu med, cong Ac trans Cc]
+17.1 +13.0 77 +17 +22 1014.9 1012.4
03 15.07 Ю 2 50 км 10/3 600 м
[Cu hum Ci fib]
+21.1 +12.7 59 +23 +33 комфорт 1014.1 1011.6
06 15.07 ЮВ 4 50 км 10/1 600 м
[Cu hum Ac trans Ci fib]
+21.0 +11.8 56 +23 +26 комфорт 1013.4 1010.9
09 15.07 Ю 2
{10}
50 км 4/0
[Ci fib]
+19.2 +11.6 61 +21 +22 комфорт 1013.0 1010.5 +22.2
12 15.07 штиль 0 35 км 3/0
[Ci fib]
+15.7 +11.6 77 +16 +16 1013.7 1011.2
15 15.07 штиль 0 35 км 3/0
[Ci fib]
+11.8 +10.8 94 +11 +11 1011.5
18 15.07 штиль 0 25 км ясно +9.8 +9.1 95 +9 +9 1013.8 1011.2
21 15.07 штиль 0 20 км в посл. час туман 4/0
[Ci fib]
+10.9 +10.4 97 +10 +13 1013.7 1011.2 +9.2
00 16.07 СВ 2 50 км {туман} 6/1 600 м
[Cu med, cong Cc]
+17.0 +13.0 77 +17 +27 1013.0 1010.5
03 16.07 Ю 2 20 км 10/3 600 м
[Cb cap Cc]
+24.1 +14.1 54 +27 +36 жарко 1011.6 1009.1
06 16.07 ЮВ 2 20 км 10/5 600 м
[Cb cap Ci fib]
+24.2 +13.3 51 +26 +30 жарко 1010.9 1008.4
09 16.07 ЮЗ 2 20 км 10/0
[Ac trans Cc]
+19.9 +14.0 69 +22 +23 комфорт 1010.1 1007.6 +25.2
12 16.07 СВ 2 25 км 10/3 600 м
[Sc Ac trans Ci fib]
+13.6 +11.5 87 +13 +13 1011.6 1009.1
15 16.07 СВ 2 14 км 10/3 600 м
[Sc Ac cast Ci fib]
+12.1 +10.7 91 +11 +11 1011.4 1008.8
18 16.07 штиль 0 19 км 10/3 600 м
[Sc Ac und]
+11.7 +10.5 92 +11 +11 1010.9 1008.4
21 16.07 СВ 2 20 км 10/3 600 м
[Sc Ac trans Ci fib]
+12.8 +11.1 89 +12 +13 1010.7 1008.2 +11.7
00 17.07 20 км 3/1 600 м
[Cu med, cong Cc]
+16.0 +12.2 78 1010.0 1007.5 +11.7
03 17.07 С 2 20 км гроза без осадков 4/3 600 м
[Cb cap Ac cuf Cc]
+22.4 +14.1 59 +26 +37 жарко 1007.9 1005.5
06 17.07 ЮЗ 2 50 км {гроза} 10/3 600 м
[Cb calv Ac lent Ci ing]
+23.1 +15.6 63 +27 +31 душно 1007.0 1004.6
09 17.07 штиль 0 20 км {гроза} 10/3 600 м
[Cb cap Ac trans Cc]
+17.4 +13.4 77 +17 +18 1006.6 1004.1 +27.3
12 17.07 штиль 0 700 м туман {гроза} 10/8 100 м
[St As trans]
+11.6 +10.7 94 +11 +11 1008.0 1005.5
15 17.07 штиль 0 1500 м в посл. час туман 10/5 100 м
[St Ac trans Cs]
+11.2 +10.6 96 +10 +10 1007.5 1005.0
18 17.07 штиль 0 11 км {туман} 10/8 600 м
[Sc Ac trans Cc]
+11.1 +10.6 97 +10 +10 1006.4 1003.9
21 17.07 штиль 0 4000 м дымка 10/4 300 м
[St Ac trans Cc]
+12.5 +11.9 96 +12 +13 1006.2 1003.7 +10.5
00 18.07 Ю 4 20 км 10/3 600 м
[Sc Ac trans Ci fib]
+19.8 +15.4 76 +22 +25 комфорт 1005.0 1002.6
03 18.07 Ю 2 50 км 10/8 600 м
[Sc Ac trans Ci fib]
+19.7 +15.1 75 +22 +24 комфорт 1004.3 1001.9
06 18.07 Ю 2
{10}
20 км в посл. час ливневой дождь {гроза} 10/4 600 м
[Cb calv Ac trans Ci fib]
+19.3 +15.0 76 +21 +24 комфорт 1003.3 1000.9
09 18.07 штиль 0 10 км слаб. ливневой дождь {гроза} 10/6 600 м
[Cb cap Ac lent Ci fib]
+16.1 +14.8 92 +16 +16 1003.5 1001.0 +22.9 0.5
12 18.07 штиль 0 8000 м слаб. ливневой дождь {гроза} 10/10 600 м
[Cb cap]
+14.9 +14.1 95 +15 +15 1004.9 1002.4
15 18.07 штиль 0 6000 м слаб. ливневой дождь 10/10 200 м
[Cb cap]
+13.6 +13.0 96 +13 +13 1004.5 1002.0
18 18.07 штиль 0 1400 м дымка {ливн. осадки} 10/10 100 м
[St]
+12.9 +12.3 96 +12 +12 1004.3 1001.8
21 18.07 штиль 0 500 м туман ?/? +13.4 +12.9 97 +13 +13 1005.2 1002.7 +12.6 2
00 19.07 С 2 20 км {туман} 10/4 600 м
[Sc Ac trans Cc]
+16.8 +14.2 85 +17 +21 1005.1 1002.7
03 19.07 С 2 50 км 10/3 600 м
[Cb cap Ac trans Ci fib]
+21.8 +16.8 73 +26 +32 душно 1004.6 1002.2
06 19.07 С 2 50 км слаб. ливневой дождь {гроза} 10/8 600 м
[Cb cap Ac und]
+14.7 +12.1 84 +14 +15 1005.3 1002.8

 

Местоположение метеостанции Советская Гавань (Хабаровский край, Россия): широта 49.00 долгота 140.30 высота над уровнем моря 24 м.

В архиве по умолчанию представлена погода в Советской Гавани за последнюю неделю. Архивные данные за месяц целиком и за предыдущие месяцы, начиная с января 2011 года, Вы можете получить, выбрав интересующий диапазон дат из раскрывающегося списка и нажав кнопку "Ввод!".


*Определитесь, кто Вы:
робот инопланетянин человек

Внимание! Время в таблицах - всемирное. Для получения местного времени необходимо прибавить поправку, которая равна 10 ч.

Смотрите также архив погоды в соседних городах и на ближайших метеорологических станциях:

Погода в Тумнине (Хабаровский край, Россия) (75 км)
Погода в Мопау (Хабаровский край, Россия) (103 км)
Погода в Углегорске (Сахалинская область, Россия) (124 км)
Погода в Солекуль (Хабаровский край, Россия) (169 км)
Погода в Пильво (Сахалинская область, Россия) (175 км)
Погода в Ильинском (Сахалинская область, Россия) (180 км)
Погода в Макарове (Сахалинская область, Россия) (181 км)
Погода в Сегжеме (Хабаровский край, Россия) (203 км)
Погода в Поронайске (Сахалинская область, Россия) (205 км)
Погода в Оноре (Сахалинская область, Россия) (209 км)

Пояснения к столбцам:

Ветер - указаны скорость ветра в м/с - средняя за 10 мин, порывы в срок и между сроками (в фигурных скобках) и направление, откуда дует ветер: С - северный, СВ - северо-восточный, В - восточный, ЮВ - юго-восточный, Ю - южный, ЮЗ - юго-западный, З - западный, СЗ - северо-западный.
Видимость - горизонтальная дальность видимости в метрах или километрах. При видимости от 1 до 10 км при отсутствии осадков обычно наблюдается дымка, при ухудшении видимости до 1 км и менее - туман. В сухую погоду видимость может ухудшаться дымом, пылью или мглою.
Явления - указаны атмосферные явления, наблюдавшиеся в срок или в последний час перед сроком; фигурными скобками обозначены явления, наблюдавшиеся между сроками (за 1-3 часа до срока); квадратными скобками обозначены град или гололедные отложения с указанием их диаметра в мм.
Облачность - указаны через наклонную черту общая и нижняя облачность в баллах и высота нижней границы облаков в метрах; квадратными скобками обозначены формы облаков: Ci - перистые, Cs - перисто-слоистые, Cc - перисто-кучевые, Ac - высококучевые, As - высокослоистые, Sc - слоисто-кучевые, Ns - слоисто-дождевые, Cu - кучевые, Cb - кучево-дождевые. Подробнее классификацию облаков см. в Атласе облаков (PDF).
T - Температура воздуха - температура, измеренная на высоте 2 м над землей.
Td - Температура точки росы - температура, при понижении до которой содержащийся в воздухе водяной пар достигнет насыщения.
f - Относительная влажность воздуха - влажноcть воздуха, измеренная на высоте 2 м над землей.
Te - Эффективная температура - температура, которую ощущает одетый по сезону человек в тени. Характеристика душности погоды. При расчете учитывается влияние влажности воздуха и скорости ветра на теплоощущения человека.
Tes - Эффективная температура на солнце - температура, которую ощущает человек, с поправкой на солнечный нагрев. Характеристика знойности погоды. Зависит от высоты солнца над горизонтом, облачности и скорости ветра. Ночью, в пасмурную погоду, а также при ветре 12 м/с и более поправка равна нулю.
P - Атмосферное давление - приведенное к уровню моря атмосферное давление.
Po - Атмосферное давление - измеренное на уровне метеостанции атмосферное давление.
Tmin - Минимальная температура - минимум температуры воздуха на высоте 2 м над землей.
Tmax - Максимальная температура - максимум температуры воздуха на высоте 2 м над землей.
R - Количество осадков - Количество выпавших осадков за период времени, мм. При наведении курсора мыши на число - период времени, за который выпало указанное количество осадков.
R24 - Количество осадков - Количество выпавших осадков за 24 часа, мм.
S - Снежный покров - Высота снежного покрова, см. При наведении курсора мыши на число - состояние снежного покрова и степень покрытия местности в баллах.